Regional Weather Roundup
Issued by NWS Goodland, KS

Home | Current Version | Previous Version | Text Only | Print | Product List | Glossary Off
Versions: 1 2 3 4 5 6 7 8 9 10 11 12 13 14 15 16 17 18 19 20 21 22 23 24 25 26 27 28 29 30 31 32 33 34 35 36 37 38 39 40 41 42 43 44 45 46 47 48 49 50

000
ASUS43 KGLD 230559
RWRGLD

GOODLAND FORECAST AREA HOURLY WEATHER ROUNDUP
NATIONAL WEATHER SERVICE GOODLAND KS
1200 AM MDT WED JUL 23 2014

...OFFICIAL OBSERVATIONS...

CITY           SKY/WX    TMP DP  RH WIND       PRES   REMARKS
GOODLAND KS    CLEAR     73  68  84 E9        30.27R
HILL CITY KS   CLEAR     78  68  71 E10       30.21R
IMPERIAL NEB   CLEAR     73  63  70 E8        30.30R
MCCOOK NEB     CLEAR     74  67  78 NE12      30.26R
AKRON CO       CLEAR     72  63  73 E15       30.32R
BURLINGTON CO  CLEAR     70  62  76 NE7       30.28R
LIMON CO       PTCLDY    68  56  65 E3        30.35R
$$

...UNOFFICIAL OBSERVATIONS...

CITY           SKY/WX    TMP DP  RH WIND       PRES   REMARKS
COLBY KS       CLEAR     75  72  88 NE9       30.25R FOG
GOVE KS          N/A     80  32  17 MISG        N/A
LENORA KS        N/A     76  32  20 MISG        N/A
NORTON KS      CLEAR     75  64  69 NE12      30.22R
SHARON SPRINGS   N/A     73  66  79 S6          N/A
WAKEENEY KS      N/A     78  71  79 MISG        N/A
KIT CARSON CO    N/A     77  59  53 CALM        N/A
YUMA CO          N/A     72  62  72 E13         N/A
$$



USA.gov is the U.S. government's official web portal to all federal, state and local government web resources and services.